Vertical_Velocity
-1 -7 0 5 4 3 2 -10 -11 -3 15 -3 2 -6 5 -3 5 -2 -2 1 -4 -2 4 3 -1 -1 4 2 -2 1 -1 -3 -4 -2 -0 6 5 -5 1 -1 -5 -0 4 1
-6 1 2 -0 -5 4 -1 5 -2 7 21 -2 -2 -4 5 4 -2 -1 -3 0 2 -2 5 3 2 -2 3 -1 1 1 0 0 -1 -3 -1 -0 2 -0 3 2 -1 -1 3 -3
-1 1 -7 -12 2 2 6 -0 3 6 -8 -9 3 -5 -3 -1 6 4 -4 -1 -1 -6 2 6 0 -1 2 0 -0 1 -1 1 1 1 -5 -3 1 -0 1 -1 -3 -4 -5 -2
3 -10 -4 -1 4 1 -3 13 -5 3 -9 -3 3 -9 -4 4 -5 1 2 -2 -2 -5 -3 9 -0 0 2 -2 -1 -1 1 -0 -1 2 -0 0 -1 1 2 3 7 1 -6 4
-2 -9 -2 1 12 -6 9 -7 -19 -6 -3 -4 2 -11 4 -3 -6 -5 1 3 -0 -6 -4 6 0 -1 -1 2 -3 -2 -1 -0 -3 -0 1 -1 1 2 2 3 2 -3 4 1
-1 -2 -1 4 2 -9 5 -6 9 2 3 -12 15 -13 5 -2 5 2 -4 2 -0 3 0 9 0 -0 1 1 0 -1 -3 -1 -2 -1 1 1 -1 1 -0 -1 2 0 -0 -2
0 -2 -8 -1 3 2 -1 3 5 -4 -9 -3 9 -14 5 10 2 0 0 -5 -1 -2 1 4 2 -0 1 -1 -1 1 -0 -3 -1 -2 -2 -1 -0 -1 2 -0 0 3 7 2
1 -1 -4 -1 4 7 -2 -2 5 3 0 -2 0 -24 11 5 3 -2 7 0 0 -2 3 -0 4 -0 0 3 -0 0 0 0 -1 -2 -1 -0 -1 -2 -1 -2 1 -2 -1 2
-0 -1 -8 -3 1 -1 7 -6 33 6 -0 -5 2 -1 -1 -0 -0 -1 1 -0 -3 -3 -5 3 1 0 2 -0 -1 3 1 -0 2 -0 -2 -1 -0 -1 -1 0 1 1 2 1
-1 -2 4 -3 3 -1 3 4 3 5 -1 -2 -0 4 29 -7 5 9 3 0 2 -5 -5 -1 -0 -0 0 0 -1 -1 -1 -1 -1 -0 -1 -1 -1 0 -1 -2 0 1 1 -3
-1 0 -2 -4 -0 7 8 3 0 4 4 -0 2 6 -2 8 11 3 8 -2 -4 -14 -16 -5 4 0 -1 2 1 -1 -1 -1 -0 -2 -1 -1 -2 -3 -3 -2 -2 -2 -2 2
-4 -1 3 5 -5 6 0 8 -5 -4 0 -3 16 15 -1 19 19 5 6 -2 -9 1 -0 -3 -7 -1 -1 0 0 -3 -2 -1 -1 1 -2 -0 -1 -1 -2 -3 -4 -2 -2 -1
-2 -5 3 5 -8 6 8 8 2 6 8 -2 -3 18 26 24 13 1 7 -12 8 -2 -1 -2 3 -3 -2 -1 2 3 3 1 1 -1 1 -1 -1 -0 -1 -1 -1 -1 -1 -1
-0 -3 -2 -0 -3 3 1 1 9 10 3 12 -3 6 15 3 18 -3 8 -11 8 -0 1 -2 1 7 1 3 -3 -4 -6 -4 -6 -1 -3 -1 -2 -4 -3 -1 -1 -1 -1 1
-1 4 -5 2 3 -6 6 1 4 5 8 1 10 2 0 10 3 2 6 -3 6 -0 5 -4 -1 3 6 13 12 12 7 5 4 4 3 5 1 -1 -2 -1 -0 -1 -2 -2
6 -0 -4 3 0 -1 2 7 -0 3 8 1 11 -9 18 -2 23 -11 14 -1 3 10 0 4 -0 -6 -0 -0 -1 2 6 7 7 5 11 -3 1 3 -2 -5 -3 -2 -0 -0
-3 -3 1 5 -4 1 -5 6 5 3 22 8 14 -4 10 21 -1 -5 4 -4 4 10 4 7 7 -2 -1 -0 -1 1 0 -1 0 6 -3 -0 7 4 3 -0 -2 -2 -0 -1
2 -1 -0 4 2 -8 7 -0 -1 7 8 -3 3 14 -14 15 26 -4 5 9 10 -3 8 -1 -3 7 5 1 -0 0 -1 -5 -5 -1 1 2 4 1 -0 5 6 4 -1 -0
-2 -1 -1 -4 -2 -1 1 1 5 -3 4 -2 9 10 -10 -8 5 -5 5 -1 3 -8 5 -1 -2 -1 3 4 3 3 2 -1 -3 -6 -7 -4 -3 3 3 -0 2 4 -5 -1
-4 -3 -8 -0 1 -2 -1 1 5 2 6 5 1 -4 -6 -5 -8 5 7 -3 2 -1 5 0 2 1 -7 -4 -2 -3 -0 0 -1 -2 -3 -5 -8 -4 1 5 4 3 0 7
-1 -1 -3 12 -6 -3 3 4 3 13 -9 -3 14 20 7 -7 -6 -3 3 -3 4 -8 -3 7 -1 -4 1 2 1 -0 -1 -1 1 1 -1 0 -3 -4 -1 1 6 6 6 9
-6 -8 -4 3 -12 -20 -0 -2 1 -1 13 7 2 -2 -5 -6 -0 4 6 -2 -0 0 -9 -2 -0 -1 -0 -2 -1 1 2 3 1 0 1 1 -0 -0 -2 -1 0 4 3 6
61 -4 -4 -6 17 22 6 3 6 0 3 3 5 -3 -1 -6 2 -2 -6 -4 -5 -2 -4 -3 -3 -2 -0 1 -1 -3 -1 -0 -1 -0 1 1 -0 -2 -1 0 -1 0 5 5
-5 2 -2 -3 0 4 7 -4 -1 1 7 10 1 -4 3 -9 -2 -1 -3 -0 1 0 0 -2 -3 -2 -3 -4 -1 -1 -1 -2 -2 -2 -2 -1 0 -1 1 1 0 1 0 -1
4 2 5 -6 16 4 -1 -3 3 4 -2 -3 -5 -5 -1 0 -2 -5 -1 -1 2 -1 0 1 -1 -1 -3 -4 -3 -3 -3 -3 -1 -2 -4 -2 0 -0 0 -0 2 3 -0 -1
19 2 -4 -5 82 -9 -6 9 5 0 -3 -2 5 -2 3 5 3 2 -1 -0 -0 -2 -1 -2 -1 -1 -2 -1 -2 0 -1 -1 -1 -4 -5 -7 -9 -7 -4 0 3 1 0 6
Height
5663 5660 5658 5658 5664 5670 5676 5679 5685 5694 5706 5704 5704 5705 5714 5716 5718 5720 5723 5725 5726 5726 5728 5729 5727 5728 5728 5727 5725 5724 5722 5720 5720 5720 5716 5715 5717 5721 5722 5726 5728 5728 5730 5735
5655 5651 5652 5654 5657 5661 5666 5672 5678 5690 5699 5695 5699 5700 5706 5710 5711 5715 5717 5718 5721 5722 5724 5724 5723 5725 5725 5723 5723 5721 5721 5720 5717 5715 5713 5709 5708 5712 5716 5719 5721 5722 5725 5728
5647 5645 5643 5644 5650 5656 5661 5664 5675 5685 5688 5686 5691 5689 5697 5704 5707 5710 5711 5713 5715 5716 5719 5721 5719 5721 5723 5720 5720 5719 5718 5717 5715 5713 5709 5705 5704 5708 5711 5714 5715 5718 5720 5724
5640 5637 5635 5637 5645 5649 5653 5660 5666 5675 5679 5680 5683 5684 5690 5698 5699 5703 5707 5709 5710 5712 5713 5718 5716 5717 5721 5717 5717 5717 5715 5714 5712 5711 5709 5706 5705 5707 5710 5712 5713 5713 5714 5717
5635 5629 5630 5633 5642 5639 5645 5649 5655 5662 5666 5672 5677 5678 5687 5691 5694 5697 5702 5705 5706 5707 5709 5714 5713 5714 5716 5716 5714 5714 5713 5712 5710 5709 5708 5707 5707 5708 5710 5711 5709 5711 5712 5715
5629 5624 5625 5629 5634 5631 5641 5641 5652 5655 5664 5664 5677 5674 5683 5688 5692 5694 5695 5698 5701 5704 5704 5710 5710 5710 5712 5714 5712 5712 5711 5710 5709 5708 5707 5706 5706 5706 5707 5707 5706 5708 5709 5712
5624 5621 5620 5620 5625 5627 5632 5637 5646 5654 5657 5655 5673 5674 5681 5685 5687 5689 5690 5691 5695 5697 5699 5705 5706 5707 5708 5710 5711 5709 5709 5708 5708 5707 5706 5705 5705 5704 5704 5705 5706 5706 5710 5711
5619 5617 5618 5615 5621 5625 5628 5633 5642 5649 5651 5655 5669 5663 5678 5681 5683 5684 5687 5689 5690 5694 5696 5699 5702 5703 5705 5706 5708 5707 5706 5706 5705 5705 5705 5704 5704 5703 5704 5704 5704 5704 5705 5707
5615 5613 5612 5613 5617 5621 5627 5626 5641 5642 5646 5653 5662 5667 5672 5675 5678 5681 5683 5686 5686 5689 5690 5693 5696 5699 5702 5703 5703 5703 5703 5702 5703 5703 5704 5703 5703 5703 5703 5703 5703 5704 5705 5705
5610 5611 5611 5612 5612 5615 5621 5627 5630 5636 5642 5648 5655 5662 5669 5668 5674 5677 5677 5679 5681 5683 5685 5686 5692 5694 5697 5698 5698 5699 5699 5699 5700 5700 5701 5701 5701 5701 5701 5701 5702 5703 5702 5702
5604 5606 5608 5609 5610 5612 5617 5622 5627 5632 5637 5643 5650 5656 5656 5663 5666 5664 5666 5670 5672 5674 5677 5681 5687 5688 5691 5693 5694 5694 5695 5695 5696 5696 5697 5698 5698 5698 5698 5699 5700 5700 5700 5701
5598 5601 5603 5607 5607 5608 5610 5617 5622 5627 5633 5637 5644 5650 5648 5654 5657 5660 5663 5663 5666 5671 5676 5679 5681 5683 5685 5687 5689 5689 5691 5692 5692 5692 5694 5695 5695 5695 5694 5694 5696 5697 5697 5697
5593 5596 5598 5602 5604 5605 5607 5611 5614 5621 5625 5631 5636 5643 5644 5644 5648 5651 5657 5657 5662 5663 5669 5671 5674 5677 5679 5680 5681 5684 5684 5686 5688 5688 5688 5689 5690 5690 5690 5691 5692 5692 5693 5693
5587 5591 5592 5596 5598 5599 5601 5604 5607 5613 5619 5624 5631 5634 5636 5639 5643 5645 5649 5652 5656 5659 5662 5666 5668 5670 5671 5672 5673 5674 5675 5677 5680 5683 5683 5684 5684 5684 5685 5685 5686 5686 5686 5687
5583 5585 5586 5589 5593 5594 5595 5599 5603 5607 5614 5618 5625 5626 5630 5634 5637 5638 5643 5646 5650 5655 5656 5659 5663 5664 5665 5666 5667 5668 5670 5672 5673 5676 5679 5679 5678 5677 5677 5678 5678 5678 5678 5678
5575 5578 5580 5584 5586 5588 5592 5596 5599 5601 5607 5610 5616 5619 5627 5629 5631 5630 5635 5638 5643 5649 5650 5652 5652 5654 5657 5658 5659 5660 5661 5662 5663 5665 5666 5669 5670 5669 5669 5669 5668 5670 5671 5670
5567 5572 5574 5578 5581 5584 5589 5593 5595 5598 5602 5605 5608 5611 5616 5619 5620 5622 5627 5632 5636 5640 5644 5644 5645 5646 5648 5649 5650 5652 5653 5654 5655 5657 5657 5659 5658 5660 5663 5662 5662 5662 5661 5660
5559 5563 5569 5572 5576 5580 5585 5587 5591 5594 5595 5599 5603 5606 5606 5612 5613 5616 5623 5630 5632 5633 5635 5636 5636 5637 5638 5639 5641 5643 5644 5644 5645 5646 5647 5648 5648 5648 5649 5649 5652 5653 5652 5651
5552 5555 5561 5566 5569 5575 5579 5583 5586 5586 5592 5594 5595 5595 5598 5602 5605 5611 5615 5620 5623 5625 5627 5627 5627 5627 5629 5630 5631 5633 5634 5635 5635 5634 5635 5637 5638 5637 5638 5636 5637 5638 5637 5637
5542 5546 5551 5560 5563 5568 5573 5576 5579 5583 5584 5585 5588 5592 5595 5598 5602 5606 5608 5613 5615 5616 5618 5619 5619 5620 5619 5619 5621 5622 5623 5624 5624 5624 5623 5623 5624 5625 5626 5625 5624 5624 5624 5623
5535 5537 5542 5547 5554 5561 5566 5569 5573 5577 5584 5583 5585 5589 5590 5592 5595 5599 5601 5605 5607 5608 5609 5610 5610 5611 5612 5612 5612 5612 5612 5612 5613 5613 5612 5611 5610 5609 5610 5611 5612 5610 5609 5608
5530 5532 5534 5539 5545 5555 5561 5566 5568 5570 5575 5577 5578 5581 5584 5588 5592 5593 5594 5595 5597 5599 5601 5601 5601 5600 5600 5600 5600 5599 5600 5600 5599 5599 5599 5598 5597 5596 5595 5593 5593 5594 5595 5592
5527 5530 5530 5534 5543 5550 5553 5558 5560 5564 5566 5570 5573 5575 5578 5579 5583 5584 5585 5586 5587 5588 5589 5589 5589 5589 5589 5589 5589 5589 5588 5587 5586 5584 5584 5583 5582 5580 5580 5579 5577 5576 5574 5574
5523 5524 5527 5529 5532 5537 5544 5547 5554 5558 5561 5564 5566 5569 5572 5575 5576 5575 5575 5575 5577 5578 5579 5580 5580 5580 5580 5579 5578 5577 5575 5574 5572 5571 5569 5567 5566 5564 5563 5562 5560 5559 5558 5556
5520 5522 5524 5527 5530 5531 5536 5540 5545 5549 5551 5554 5556 5559 5561 5563 5564 5565 5565 5567 5568 5570 5571 5571 5571 5571 5570 5569 5568 5566 5564 5562 5559 5556 5553 5551 5550 5548 5546 5544 5543 5541 5541 5540
5514 5513 5519 5524 5526 5530 5534 5537 5536 5540 5542 5545 5547 5547 5550 5553 5554 5556 5558 5560 5560 5561 5561 5561 5560 5559 5558 5556 5554 5552 5550 5548 5545 5542 5540 5537 5534 5532 5530 5527 5525 5524 5524 5522